| time (UTC) | temp F | wind direction | speed MPH | gust MPH | rain 1hr in | rain 24hr in | rain mn in | humidity % | barometer mb |
| 20260505125004 | 57 | 138 | 0.0 | 1.0 | 0.00 | 0.00 | 0.00 | 84 | 1012.2 |
| 20260505123004 | 57 | 64 | 0.0 | 1.0 | 0.00 | 0.00 | 0.00 | 84 | 1012.1 |
| 20260505121004 | 57 | 349 | 0.0 | 1.0 | 0.00 | 0.00 | 0.00 | 83 | 1012.0 |
| 20260505120005 | 57 | 349 | 0.0 | 2.0 | 0.00 | 0.00 | 0.00 | 82 | 1011.9 |
| 20260505115004 | 57 | 2 | 0.0 | 2.0 | 0.00 | 0.00 | 0.00 | 83 | 1012.0 |
| 20260505113004 | 58 | 331 | 0.0 | 0.0 | 0.00 | 0.00 | 0.00 | 82 | 1012.0 |
| 20260505112004 | 58 | 335 | 0.0 | 1.0 | 0.00 | 0.00 | 0.00 | 82 | 1012.1 |
| 20260505102004 | 58 | 264 | 0.0 | 0.0 | 0.00 | 0.00 | 0.00 | 85 | 1012.1 |
| 20260505101004 | 58 | 257 | 0.0 | 3.0 | 0.00 | 0.00 | 0.00 | 85 | 1012.2 |
| 20260505100004 | 58 | 30 | 0.0 | 1.0 | 0.00 | 0.00 | 0.00 | 86 | 1012.1 |
| 20260505095004 | 58 | 226 | 0.0 | 3.0 | 0.00 | 0.00 | 0.00 | 90 | 1012.2 |
| 20260505094004 | 58 | 188 | 0.0 | 0.0 | 0.00 | 0.00 | 0.00 | 90 | 1012.3 |
| 20260505093004 | 58 | 188 | 0.0 | 0.0 | 0.00 | 0.00 | 0.00 | 90 | 1012.5 |
| 20260505092004 | 58 | 188 | 0.0 | 1.0 | 0.00 | 0.00 | 0.00 | 90 | 1012.7 |
| 20260505091004 | 59 | 210 | 0.0 | 1.0 | 0.00 | 0.00 | 0.00 | 89 | 1012.8 |
| 20260505090005 | 59 | 180 | 0.0 | 0.0 | 0.00 | 0.00 | 0.00 | 88 | 1012.8 |
| 20260505085004 | 59 | 198 | 0.0 | 2.0 | 0.00 | 0.00 | 0.00 | 87 | 1012.9 |
| 20260505084004 | 59 | 212 | 0.0 | 0.0 | 0.00 | 0.00 | 0.00 | 87 | 1013.0 |
| 20260505083005 | 59 | 212 | 0.0 | 1.0 | 0.00 | 0.00 | 0.00 | 86 | 1013.0 |
| 20260505082004 | 59 | 272 | 0.0 | 0.0 | 0.00 | 0.00 | 0.00 | 86 | 1013.0 |
| 20260505081005 | 59 | 272 | 0.0 | 1.0 | 0.00 | 0.00 | 0.00 | 86 | 1013.1 |
| 20260505080004 | 59 | 272 | 0.0 | 0.0 | 0.00 | 0.00 | 0.00 | 86 | 1013.0 |
| 20260505072005 | 60 | 272 | 0.0 | 0.0 | 0.00 | 0.00 | 0.00 | 83 | 1013.5 |
| 20260505071004 | 60 | 272 | 0.0 | 1.0 | 0.00 | 0.00 | 0.00 | 82 | 1013.3 |
| 20260505070006 | 60 | 272 | 0.0 | 1.0 | 0.00 | 0.00 | 0.00 | 82 | 1013.3 |
| 20260505065004 | 60 | 11 | 0.0 | 4.0 | 0.00 | 0.00 | 0.00 | 82 | 1013.3 |
| 20260505064003 | 60 | 292 | 0.0 | 2.0 | 0.00 | 0.00 | 0.00 | 82 | 1013.3 |
| 20260505062004 | 60 | 6 | 0.0 | 0.0 | 0.00 | 0.00 | 0.00 | 84 | 1013.4 |
| 20260505061004 | 60 | 6 | 0.0 | 1.0 | 0.00 | 0.00 | 0.00 | 83 | 1013.4 |
| 20260505060005 | 60 | 307 | 0.0 | 0.0 | 0.00 | 0.00 | 0.00 | 83 | 1013.3 |
| 20260505055004 | 60 | 320 | 0.0 | 1.0 | 0.00 | 0.00 | 0.00 | 81 | 1013.4 |
| 20260505052003 | 60 | 220 | 0.0 | 0.0 | 0.00 | 0.00 | 0.00 | 80 | 1013.4 |
| 20260505051004 | 60 | 162 | 0.0 | 0.0 | 0.00 | 0.00 | 0.00 | 81 | 1013.6 |
| 20260505041004 | 60 | 270 | 0.0 | 1.0 | 0.00 | 0.00 | 0.00 | 81 | 1013.8 |
| 20260505040005 | 60 | 200 | 0.0 | 2.0 | 0.00 | 0.00 | 0.00 | 81 | 1013.8 |
| 20260505035004 | 60 | 240 | 0.0 | 3.0 | 0.00 | 0.00 | 0.00 | 80 | 1013.7 |
| 20260505034003 | 60 | 165 | 0.0 | 1.0 | 0.00 | 0.00 | 0.00 | 79 | 1013.6 |
| 20260505032004 | 60 | 209 | 0.0 | 3.0 | 0.00 | 0.00 | 0.00 | 79 | 1013.5 |
| 20260505031004 | 61 | 157 | 1.0 | 4.0 | 0.00 | 0.00 | 0.00 | 78 | 1013.3 |
| 20260505030004 | 61 | 245 | 1.0 | 6.0 | 0.00 | 0.00 | 0.00 | 79 | 1013.4 |
| 20260505025004 | 61 | 214 | 0.0 | 4.0 | 0.00 | 0.00 | 0.00 | 78 | 1013.4 |
| 20260505024003 | 61 | 236 | 0.0 | 6.0 | 0.00 | 0.00 | 0.00 | 77 | 1013.4 |
| 20260505023004 | 62 | 195 | 0.0 | 4.0 | 0.00 | 0.00 | 0.00 | 75 | 1013.5 |
| 20260505022003 | 62 | 252 | 0.0 | 7.0 | 0.00 | 0.00 | 0.00 | 75 | 1013.4 |
| 20260505021003 | 63 | 157 | 3.0 | 9.0 | 0.00 | 0.00 | 0.00 | 72 | 1013.4 |
| 20260505020003 | 64 | 207 | 2.0 | 5.0 | 0.00 | 0.00 | 0.00 | 71 | 1013.4 |
| 20260505015003 | 64 | 281 | 0.0 | 2.0 | 0.00 | 0.00 | 0.00 | 70 | 1013.3 |
| 20260505014003 | 64 | 58 | 0.0 | 3.0 | 0.00 | 0.00 | 0.00 | 70 | 1013.3 |
| 20260505013003 | 65 | 321 | 1.0 | 2.0 | 0.00 | 0.00 | 0.00 | 69 | 1013.4 |
| 20260505012008 | 66 | 321 | 0.0 | 2.0 | 0.00 | 0.00 | 0.00 | 65 | 1013.3 |
| 20260505011005 | 66 | 231 | 3.0 | 3.0 | 0.00 | 0.00 | 0.00 | 64 | 1013.5 |
| 20260505010006 | 66 | 67 | 0.0 | 1.0 | 0.00 | 0.00 | 0.00 | 63 | 1013.5 |
| 20260505005005 | 67 | 243 | 0.0 | 2.0 | 0.00 | 0.00 | 0.00 | 63 | 1013.5 |
| 20260505004004 | 68 | 30 | 0.0 | 5.0 | 0.00 | 0.00 | 0.00 | 61 | 1013.4 |
| 20260505003005 | 68 | 42 | 1.0 | 5.0 | 0.00 | 0.00 | 0.00 | 63 | 1013.5 |
| 20260505002004 | 68 | 63 | 0.0 | 1.0 | 0.00 | 0.00 | 0.00 | 65 | 1013.7 |
| 20260505001004 | 68 | 323 | 0.0 | 2.0 | 0.00 | 0.00 | 0.00 | 62 | 1013.7 |
| 20260505000006 | 68 | 6 | 0.0 | 3.0 | 0.00 | 0.00 | 0.00 | 62 | 1013.6 |
| 20260504235005 | 68 | 261 | 7.0 | 7.0 | 0.00 | 0.00 | 0.00 | 61 | 1013.6 |
| 20260504234004 | 68 | 295 | 6.0 | 8.0 | 0.00 | 0.00 | 0.00 | 60 | 1013.6 |
| 20260504233004 | 70 | 286 | 3.0 | 6.0 | 0.00 | 0.00 | 0.00 | 58 | 1013.6 |
| 20260504232004 | 70 | 16 | 0.0 | 3.0 | 0.00 | 0.00 | 0.00 | 58 | 1013.5 |
| 20260504231005 | 71 | 353 | 1.0 | 3.0 | 0.00 | 0.00 | 0.00 | 56 | 1013.4 |
| 20260504224005 | 72 | 151 | 3.0 | 5.0 | 0.00 | 0.00 | 0.00 | 55 | 1013.5 |
| 20260504223004 | 73 | 164 | 0.0 | 5.0 | 0.00 | 0.00 | 0.00 | 52 | 1013.6 |
| 20260504220006 | 73 | 138 | 4.0 | 7.0 | 0.00 | 0.00 | 0.00 | 53 | 1014.1 |
| 20260504215005 | 72 | 179 | 0.0 | 5.0 | 0.00 | 0.00 | 0.00 | 56 | 1014.0 |
| 20260504214004 | 72 | 181 | 0.0 | 4.0 | 0.00 | 0.00 | 0.00 | 54 | 1014.3 |
| 20260504213004 | 72 | 203 | 5.0 | 7.0 | 0.00 | 0.00 | 0.00 | 56 | 1014.5 |
| 20260504212004 | 73 | 160 | 0.0 | 5.0 | 0.00 | 0.00 | 0.00 | 56 | 1014.4 |
| 20260504211005 | 73 | 43 | 1.0 | 7.0 | 0.00 | 0.00 | 0.00 | 55 | 1014.5 |
| 20260504210005 | 73 | 158 | 0.0 | 9.0 | 0.00 | 0.00 | 0.00 | 53 | 1014.5 |
| 20260504205005 | 73 | 176 | 1.0 | 9.0 | 0.00 | 0.00 | 0.00 | 54 | 1014.5 |
| 20260504204004 | 74 | 167 | 0.0 | 6.0 | 0.00 | 0.00 | 0.00 | 52 | 1014.5 |
| 20260504203005 | 74 | 141 | 5.0 | 8.0 | 0.00 | 0.00 | 0.00 | 53 | 1014.2 |
| 20260504202004 | 74 | 162 | 5.0 | 7.0 | 0.00 | 0.00 | 0.00 | 52 | 1014.3 |
| 20260504201004 | 74 | 172 | 0.0 | 6.0 | 0.00 | 0.00 | 0.00 | 52 | 1014.3 |
| 20260504200007 | 74 | 195 | 0.0 | 4.0 | 0.00 | 0.00 | 0.00 | 48 | 1014.4 |
| 20260504195006 | 74 | 257 | 0.0 | 5.0 | 0.00 | 0.00 | 0.00 | 48 | 1014.4 |
| 20260504192005 | 74 | 239 | 0.0 | 2.0 | 0.00 | 0.00 | 0.00 | 51 | 1014.5 |
| 20260504191004 | 73 | 54 | 1.0 | 3.0 | 0.00 | 0.00 | 0.00 | 52 | 1014.5 |
| 20260504190005 | 72 | 28 | 0.0 | 3.0 | 0.00 | 0.00 | 0.00 | 51 | 1014.5 |
| 20260504183005 | 71 | 104 | 1.0 | 4.0 | 0.00 | 0.00 | 0.00 | 55 | 1014.8 |
| 20260504182005 | 70 | 245 | 0.0 | 4.0 | 0.00 | 0.00 | 0.00 | 55 | 1014.8 |
| 20260504181005 | 71 | 53 | 0.0 | 3.0 | 0.00 | 0.00 | 0.00 | 50 | 1014.7 |
| 20260504180005 | 71 | 193 | 3.0 | 6.0 | 0.00 | 0.00 | 0.00 | 52 | 1014.7 |
| 20260504175005 | 71 | 248 | 3.0 | 4.0 | 0.00 | 0.00 | 0.00 | 53 | 1014.8 |
| 20260504174004 | 70 | 272 | 1.0 | 6.0 | 0.00 | 0.00 | 0.00 | 54 | 1014.7 |
| 20260504173004 | 70 | 138 | 1.0 | 4.0 | 0.00 | 0.00 | 0.00 | 53 | 1014.6 |
| 20260504172004 | 70 | 279 | 0.0 | 4.0 | 0.00 | 0.00 | 0.00 | 54 | 1014.4 |
| 20260504171004 | 70 | 190 | 2.0 | 2.0 | 0.00 | 0.00 | 0.00 | 55 | 1014.3 |
| 20260504151003 | 62 | 244 | 0.0 | 2.0 | 0.00 | 0.00 | 0.00 | 71 | 1014.1 |
| 20260504141004 | 59 | 57 | 0.0 | 2.0 | 0.00 | 0.00 | 0.00 | 79 | 1013.6 |